Regional Weather Roundup
Issued by NWS

Home | Current Version | Previous Version | Graphics & Text | Print | Product List | Glossary On
Versions: 1 2 3 4 5 6 7 8 9 10 11 12 13 14 15 16 17 18 19 20 21 22 23 24 25 26 27 28 29 30 31 32 33 34 35 36 37 38 39 40 41 42 43 44 45 46 47 48 49 50
620
ASUS43 KLSX 210910
RWRMO

WEATHER SUMMARY FOR MISSOURI
NATIONAL WEATHER SERVICE SPRINGFIELD MO
300 AM CST TUE FEB 21 2017

NOTE: "FAIR" INDICATES FEW OR NO CLOUDS BELOW 12,000 FEET WITH NO
       SIGNIFICANT WEATHER AND/OR OBSTRUCTIONS TO VISIBILITY.
       CURRENT SKY AND/OR WEATHER CONDITIONS ARE NOT AVAILABLE FOR
       CHILLICOTHE AND FARMINGTON.

MOZ001>031-035>038-043-044-053-054-211000-
...NORTHERN AND WESTERN MISSOURI...

CITY           SKY/WX    TMP DP  RH WIND       PRES   REMARKS
KANSAS CTY INT CLOUDY    50  46  86 N9        29.93S
KANSAS C DTWN  CLOUDY    55  50  83 N5        29.93R
LEE`S SUMMIT   CLOUDY    53  52  96 NW3       29.93R
ST JOSEPH      CLOUDY    43  43 100 NW6       29.98R
CHILLICOTHE      N/A     52  50  93 N6        29.94S
KIRKSVILLE     CLOUDY    52  51  97 NW3       29.94R

$$
MOZ066>068-077>081-088>096-101>105-211000-
...SOUTHWEST MISSOURI...

CITY           SKY/WX    TMP DP  RH WIND       PRES   REMARKS
SPRINGFIELD    CLOUDY    55  54  96 N5        29.91F FOG
JOPLIN         CLOUDY    53  53 100 CALM      29.90F
BRANSON        CLOUDY    55  55 100 NE6       29.88F FOG

$$
MOZ032>034-039>042-045>050-055>058-069>072-211000-
...CENTRAL MISSOURI...

CITY           SKY/WX    TMP DP  RH WIND       PRES   REMARKS
COLUMBIA       PTCLDY    57  57 100 SE3       29.93F FOG
JEFFERSON CITY FOG       56  56 100 CALM      29.93F VSB 1/4
ROLLA          FOG       55  55 100 CALM      29.92F VSB 1/2
SEDALIA        CLOUDY    57  54  89 CALM      29.92F
WHITEMAN AFB   MOCLDY    54  54 100 CALM      29.90F
WARRENSBURG    CLOUDY    52  50  93 CALM      29.92S
OSAGE BEACH    CLOUDY    56  56 100 SE5       29.95R

$$
MOZ051-052-059>065-211000-
...EAST CENTRAL MISSOURI...

CITY           SKY/WX    TMP DP  RH WIND       PRES   REMARKS
ST LOUIS INTL  LGT RAIN  62  59  90 W3        29.93F
SPIRIT OF STL  LGT RAIN  61  61 100 W7        29.91F FOG
ST CHARLES     LGT RAIN  58  58 100 CALM      29.92F FOG

$$
MOZ072>076-082>087-097>100-106>115-211000-
...SOUTH CENTRAL AND SOUTHEAST MISSOURI...

CITY           SKY/WX    TMP DP  RH WIND       PRES   REMARKS
CAPE GIRARDEAU CLOUDY    58  50  75 CALM      29.92R
FARMINGTON     LGT RAIN  58  57  97 CALM      29.94F
POPLAR BLUFF   LGT RAIN  58  57  97 CALM      29.92S
WEST PLAINS    RAIN      56  55  97 NE9       29.92F FOG

$$




USA.gov is the U.S. government's official web portal to all federal, state and local government web resources and services.